FLOCK 2K-12 (42893 NORAD) Tracking and Keplerian Element Data

This shows tracking and keplerian element data for the satellite.

Feedback or suggestion? Click here.




ElementValue
Catalog42893
NameFLOCK 2K-12
Epoch Orbit3291
Epoch Day46.19088385
Epoch Year2018
RAAN309.0476
Inclination96.9932
Eccentricity0.0012709
Argument of Perigee173.8497
Mean Anonmoly186.2907
Mean Motion15.35624393
Decay Rate8.931E-05
L11 42893U 17042BW 18046.19088385 .00008931 00000-0 25935-3 0 9999
L22 42893 96.9932 309.0476 0012709 173.8497 186.2907 15.35624393 32912

Live tracking and technical data element details for FLOCK 2K-12 (NORAD 42893). FLOCK 2K-12 can be tracked NOW for your location showing map with azimuth and elevation plus other details from your city location.

Track the satellite on the map from your city or location and see movement details for azimuth, elevation, latitude, longitude, range, height, and movement on the map or in text.







IsCatalogInMostPopularTable: catalog: 42893, numindb: 93
Update: records affected: 1



GetName: 42893 FLOCK 2K-12

Hit Count: updated at: Fri, 20 Jul 2018 07:07:51 GMT